Regional Weather Roundup
Issued by NWS

Home | Current Version | Previous Version | Graphics & Text | Print | Product List | Glossary On
Versions: 1 2 3 4 5 6 7 8 9 10 11 12 13 14 15 16 17 18 19 20 21 22 23 24 25 26 27 28 29 30 31 32 33 34 35 36 37 38 39 40 41 42 43 44 45 46 47 48 49 50
000
ASUS43 KDTX 231601
RWRMI
MICHIGAN HOURLY REGIONAL WEATHER ROUNDUP
NATIONAL WEATHER SERVICE DETROIT/PONTIAC MI
1200 PM EDT TUE SEP 23 2014

NOTE: "FAIR" INDICATES FEW OR NO CLOUDS BELOW 12,000 FEET WITH NO
SIGNIFICANT WEATHER AND/OR OBSTRUCTION TO VISIBILITY.

MIZ047>049-052>055-059>063-066>070-074>076-081>083-231700-
SOUTHEAST LOWER MICHIGAN

CITY           SKY/WX    TMP DP  RH WIND       PRES   REMARKS
ADRIAN         SUNNY     63  48  58 VRB3      30.37S
ALMA           SUNNY     66  54  65 SW7       30.33S
ANN ARBOR      SUNNY     65  47  52 VRB6      30.35S
BAD AXE        SUNNY     63  54  72 W8        30.32S
CARO           SUNNY     64  53  66 SW6       30.32S
DETROIT CITY   SUNNY     66  47  50 VRB7      30.35S
DETROIT        SUNNY     64  48  56 SW7       30.36S
FLINT          SUNNY     66  50  56 W7        30.34S
GROSSE ILE     SUNNY     63  52  67 S8        30.35S
HILLSDALE      SUNNY     64  48  55 CALM      30.36F
HOWELL         SUNNY     64  50  59 W7        30.35S

CITY           SKY/WX    TMP DP  RH WIND       PRES   REMARKS
JACKSON        SUNNY     64  48  56 SW8       30.36S
LAMBERTVILLE   SUNNY     64  45  48 SW3       30.37S
LANSING        SUNNY     66  51  58 SW6       30.35S
LAPEER         FAIR      64  48  56 W5        30.34R
MASON          SUNNY     64  51  61 SW5       30.35S
MONROE         SUNNY     64  46  52 SW7       30.35S
MT. CLEMENS    SUNNY     66  47  49 S6        30.32S
PONTIAC        SUNNY     64  48  56 SW7       30.34S
PORT HOPE        N/A     64  52  64 SW8       30.28S
PORT HURON     SUNNY     64  50  59 S8        30.33S
TRI CITIES     SUNNY     64  53  67 SW10      30.32F
TROY           SUNNY     66  47  50 SW7       30.35F
SAGINAW HB     SUNNY     64  52  63 W8        30.31F
$$
MIZ043>046-050>051-056>058-064>065-071>073-077>080-231700-
SOUTHWEST LOWER MICHIGAN

CITY           SKY/WX    TMP DP  RH WIND       PRES   REMARKS
BATTLE CREEK   SUNNY     64  49  57 VRB3      30.36S
BENTON HARBOR  SUNNY     63  51  65 SW5       30.35S
BIG RAPIDS     SUNNY     67  57  68 W9        30.32S
COLDWATER      SUNNY     65  48  53 SW3       30.36F
FREMONT        FAIR      66  55  66 SW6       30.32S
HOLLAND        SUNNY     67  54  63 SW9       30.35R
GRAND RAPIDS   SUNNY     66  54  65 SW6       30.34S
IONIA          FAIR      66  53  62 W5        30.33S
KALAMAZOO      SUNNY     66  49  54 CALM      30.36S
LUDINGTON      SUNNY     64  58  78 SW5       30.32S
MARSHALL       SUNNY     63  49  59 W6        30.35S
MOUNT PLEASANT SUNNY     68  54  60 W9        30.31S
MUSKEGON       SUNNY     66  54  65 SW10      30.34R
SOUTH HAVEN    SUNNY     66  53  63 W7        30.35S
$$
MIZ016>042-231700-
NORTHERN LOWER MICHIGAN

CITY           SKY/WX    TMP DP  RH WIND       PRES   REMARKS
ALPENA         SUNNY     67  53  61 SW6       30.25R
BEAVER ISLAND  SUNNY     64  56  76 SW12      30.26R
BELLAIRE       SUNNY     66  54  66 SW6       30.28S
CADILLAC       SUNNY     65  55  70 SW9       30.30S
CHARLEVOIX     SUNNY     65  56  73 W13       30.30R
FRANKFORT      SUNNY     63  54  71 SW6       30.30R
GAYLORD        SUNNY     66  52  60 W12       30.28R
GRAYLING       SUNNY     69  56  63 SW9       30.29S
HARBOR SPRINGS SUNNY     65  55  69 W9G16     30.27R
HOUGHTON LAKE  SUNNY     61  53  75 W5        30.31R
MANISTEE       SUNNY     64  52  63 W9        30.32R
OSCODA         SUNNY     68  54  60 S7        30.26S
PELLSTON       SUNNY     66  56  70 SW9       30.26R
TRAVERSE CITY  SUNNY     67  54  63 SW6       30.27R
$$
MIZ007>008-015-231700-
EASTERN UPPER MICHIGAN

CITY           SKY/WX    TMP DP  RH WIND       PRES   REMARKS
KINROSS        SUNNY     64  54  68 NW5       30.24R
MACKINAC ISLAN SUNNY     62  57  84 W10G17    30.24S
NEWBERRY       SUNNY     66  54  65 CALM      30.24R
S. S. MARIE    SUNNY     64  54  69 VRB6      30.22R
$$
MIZ004>006-011>014-085-231700-
CENTRAL UPPER MICHIGAN

CITY           SKY/WX    TMP DP  RH WIND       PRES   REMARKS
MANISTIQUE     SUNNY     63  55  74 S3        30.24R
ESCANABA       SUNNY     68  54  60 CALM      30.25S
MENOMINEE      SUNNY     64  54  68 W5        30.26F
SAWYER-GWINN   SUNNY     68  52  56 CALM      30.25R
$$
MIZ001>003-009>011-084-231700-
WESTERN UPPER MICHIGAN

CITY           SKY/WX    TMP DP  RH WIND       PRES   REMARKS
IRON MOUNTAIN  SUNNY     68  53  58 VRB3      30.25S
HOUGHTON       SUNNY     67  52  58 W10       30.22S
COPPER HARBOR    N/A     59  51  75 N14       30.21R
IRONWOOD       SUNNY     68  54  60 SW9       30.22S
$$

ABBREVIATIONS USED IN REMARKS
   TC - TEMPERATURE IN CELSIUS
  WCI - WIND CHILL INDEX
   HX - HEAT INDEX
  VSB - VISIBILITY




USA.gov is the U.S. government's official web portal to all federal, state and local government web resources and services.